C/2022 U3 ( Bok )

Japanese version
Home page
Updated on March 27, 2023

---------------------------------------------------------------------

* Profile

Discovery Date October 31, 2022
Magnitude 19.6 mag
Discoverer Hannes Groeller and Cassandra Lejoly (Bok NEO Survey)

* Pictures

* Orbital Elements

Epoch 2023 Feb. 25.0 TT = JDT 2460000.5
T 2024 July 27.65909 TT                                 Rudenko
q   4.8294643            (2000.0)            P               Q
z  -0.0006393      Peri.  188.95995     -0.17792715     -0.81393790
 +/-0.0000126      Node   272.80805     +0.93367141     +0.03786875
e   1.0030875      Incl.   33.62117     +0.31080480     -0.57971636
>From 143 observations 2021 June 30-2023 Feb. 17, mean residual 0".5.

* Magnitudes Graph

        m1 = 3.0 + 5 log d + 15.0 log r

---------------------------------------------------------------------

The orbital elements are published on M.P.E.C. 2023-D41.
The magnitudes graphs are made with Comet for Windows.

---------------------------------------------------------------------

Copyright(C) Seiichi Yoshida (comet@aerith.net). All rights reserved.